Back to catalog

STARLINK-36971

AliveCommunicationsSSO
NORAD 68165·PAYLOAD·🇺🇸 United States

Launched Mar 13, 2026 from Vandenberg Space Force Base

Loading…

Next Passes (next 24 hours)

TLE

FreshSource: CelesTrak SupGP

Epoch: Sep 14, 2026, 14:40 UTC

1 68165C 26049Z   26257.61159722 -.00023512  00000+0 -72979-3 0  2570
2 68165  97.2839 277.7030 0001451  98.7126 201.7499 15.33455015    11

Track STARLINK-36971 in real time with AllMySat

Download on the App Store